FW1266 Weather Reports


time (UTC)temp
F
wind
direction
speed
knots
gust
knots
rain 1hr
in
rain 24hr
in
rain mn
in
humidity
%
barometer
mb
20260906121622 62 117 0.9 1.7 0.00 0.03 0.00 91 1020.1
20260906121117 61 123 0.9 2.6 0.00 0.03 0.00 91 1020.1
20260906120610 61 148 0.0 2.6 0.00 0.03 0.00 91 1020.1
20260906120104 60 141 0.0 0.9 0.00 0.03 0.00 92 1020.0
20260906115559 60 129 0.0 0.9 0.00 0.03 0.00 92 1019.9
20260906115052 60 138 0.0 1.7 0.00 0.03 0.00 92 1019.9
20260906114547 60 106 0.0 1.7 0.00 0.03 0.00 92 1019.9
20260906114322 59 158 0.0 3.5 0.00 0.03 0.00 92 1019.7
20260906113535 59 136 0.9 3.5 0.00 0.03 0.00 92 1019.6
20260906113029 59 101 0.9 3.5 0.00 0.03 0.00 92 1019.6
20260906112523 59 122 0.0 2.6 0.00 0.03 0.00 92 1019.5
20260906112017 59 94 0.0 1.7 0.00 0.03 0.00 91 1019.5
20260906111517 59 133 0.0 0.9 0.00 0.03 0.00 91 1019.6
20260906111014 60 133 0.9 1.7 0.00 0.03 0.00 90 1019.6
20260906110513 60 130 0.9 1.7 0.00 0.03 0.00 90 1019.6
20260906110015 60 148 0.0 1.7 0.00 0.03 0.00 89 1019.6
20260906105749 60 129 0.0 1.7 0.00 0.03 0.00 89 1019.6
20260906105012 61 129 0.9 2.6 0.00 0.03 0.00 89 1019.4
20260906104512 61 142 0.0 2.6 0.00 0.03 0.00 89 1019.4
20260906104013 61 137 0.9 1.7 0.00 0.03 0.00 89 1019.2
20260906103753 61 118 0.9 3.5 0.00 0.03 0.00 89 1019.1
20260906103013 61 125 0.9 5.2 0.00 0.03 0.00 89 1019.2
20260906102513 61 92 0.9 5.2 0.00 0.03 0.00 88 1019.2
20260906102010 61 127 0.9 4.3 0.00 0.03 0.00 87 1019.4
20260906101510 61 120 0.9 2.6 0.00 0.03 0.00 87 1019.4
20260906101012 61 131 0.9 2.6 0.00 0.03 0.00 87 1019.4
20260906100510 61 110 1.7 4.3 0.00 0.03 0.00 87 1019.2
20260906100029 61 115 1.7 4.3 0.00 0.03 0.00 86 1019.2
20260906100019 61 101 1.7 4.3 0.00 0.03 0.00 86 1019.1
20260906095002 61 98 1.7 4.3 0.00 0.03 0.00 86 1019.1
20260906094503 61 53 1.7 5.2 0.00 0.03 0.00 86 1019.0
20260906093957 61 104 0.9 5.2 0.00 0.03 0.00 85 1019.0
20260906093451 62 105 0.9 2.6 0.00 0.03 0.00 86 1019.1
20260906092945 62 141 0.9 3.5 0.00 0.03 0.00 85 1019.0
20260906092439 62 89 0.9 3.5 0.00 0.03 0.00 85 1019.0
20260906091940 62 102 0.9 5.2 0.00 0.03 0.00 85 1019.0
20260906091439 62 149 1.7 5.2 0.00 0.03 0.00 85 1019.0
20260906091224 62 104 1.7 4.3 0.00 0.03 0.00 85 1019.0
20260906090441 62 116 1.7 4.3 0.00 0.03 0.00 85 1019.0
20260906085940 62 95 1.7 4.3 0.00 0.03 0.00 85 1018.9
20260906085440 62 86 1.7 4.3 0.00 0.03 0.00 85 1019.1
20260906084941 62 98 0.9 3.5 0.00 0.03 0.00 85 1019.0
20260906084441 62 108 0.9 3.5 0.00 0.03 0.00 85 1018.8
20260906083939 62 71 0.9 3.5 0.00 0.03 0.00 86 1018.7
20260906083440 62 100 0.9 2.6 0.00 0.03 0.00 86 1018.5
20260906082941 62 106 0.9 2.6 0.00 0.03 0.00 85 1018.4
20260906082440 62 120 0.9 3.5 0.00 0.03 0.00 85 1018.5
20260906081939 62 94 0.9 7.0 0.00 0.03 0.00 85 1018.6
20260906081440 62 105 0.9 7.0 0.00 0.03 0.00 85 1018.4
20260906081224 63 98 0.9 3.5 0.00 0.03 0.00 84 1018.4
20260906080438 63 97 0.9 5.2 0.00 0.03 0.00 85 1018.4
20260906075939 63 116 0.9 5.2 0.00 0.03 0.00 85 1018.2
20260906075438 63 65 0.9 4.3 0.00 0.03 0.00 84 1018.1
20260906074939 63 104 0.9 4.3 0.00 0.03 0.00 84 1018.2
20260906074715 63 110 1.7 4.3 0.00 0.03 0.00 84 1018.2
20260906073937 63 77 1.7 6.1 0.00 0.03 0.00 84 1018.1
20260906073435 63 94 1.7 6.1 0.00 0.03 0.00 85 1018.1
20260906072933 63 97 1.7 4.3 0.00 0.03 0.00 85 1018.0
20260906072431 63 100 0.9 2.6 0.00 0.03 0.00 84 1018.0
20260906072215 63 103 0.9 4.3 0.00 0.03 0.00 85 1018.0
20260906071432 63 94 0.9 4.3 0.00 0.03 0.00 85 1018.1
20260906070932 63 117 0.9 2.6 0.00 0.03 0.00 85 1018.1
20260906070433 64 78 0.0 2.6 0.00 0.03 0.00 84 1018.1
20260906065932 64 103 0.9 2.6 0.00 0.03 0.00 84 1018.2
20260906065432 64 119 0.9 4.3 0.00 0.03 0.00 84 1018.2
20260906064933 64 129 0.9 4.3 0.00 0.03 0.00 83 1018.3
20260906064503 65 120 0.9 2.6 0.00 0.03 0.00 83 1018.3
20260906064450 64 105 0.9 2.6 0.00 0.03 0.00 83 1018.3
20260906063432 65 96 0.9 4.3 0.00 0.03 0.00 82 1018.4
20260906063211 65 139 0.9 4.3 0.00 0.03 0.00 82 1018.4
20260906062431 65 75 0.0 4.3 0.00 0.03 0.00 81 1018.2
20260906061929 65 120 0.0 2.6 0.00 0.03 0.00 82 1018.3
20260906061709 65 111 0.9 4.3 0.00 0.03 0.00 81 1018.2
20260906060927 66 111 0.9 4.3 0.00 0.03 0.00 80 1018.2
20260906060425 66 101 1.7 4.3 0.00 0.03 0.00 80 1018.2
20260906055926 66 96 1.7 5.2 0.00 0.03 0.00 81 1018.2
20260906055425 66 73 1.7 5.2 0.00 0.03 0.00 80 1018.2
20260906054927 66 104 1.7 5.2 0.00 0.03 0.00 80 1018.1
20260906054703 66 109 2.6 5.2 0.00 0.03 0.00 80 1018.1
20260906053927 67 86 1.7 6.1 0.00 0.03 0.00 79 1018.0
20260906053426 67 87 2.6 7.0 0.00 0.03 0.00 79 1018.0
20260906052927 67 105 1.7 7.0 0.00 0.03 0.00 81 1017.9
20260906052422 67 83 0.9 5.2 0.00 0.03 0.00 81 1017.9
20260906051923 67 141 0.9 5.2 0.00 0.03 0.00 80 1018.0
20260906051422 67 114 0.9 4.3 0.00 0.03 0.00 80 1018.1
20260906050921 67 107 1.7 6.1 0.00 0.03 0.00 80 1018.1
20260906050421 68 122 1.7 6.1 0.00 0.03 0.00 80 1018.0
20260906045922 68 101 1.7 7.0 0.00 0.03 0.00 80 1017.9
20260906045423 68 120 1.7 7.0 0.00 0.03 0.00 81 1017.8
20260906045205 68 107 0.9 4.3 0.00 0.03 0.00 81 1017.8
20260906044423 68 129 0.9 4.3 0.00 0.03 0.00 81 1017.8
20260906043922 68 108 0.9 4.3 0.00 0.03 0.00 82 1017.8
20260906043421 68 124 0.9 3.5 0.00 0.03 0.00 82 1017.7
20260906042923 69 82 1.7 5.2 0.00 0.03 0.00 82 1017.6
20260906042705 69 97 2.6 5.2 0.00 0.03 0.00 83 1017.6
20260906041921 69 100 1.7 5.2 0.00 0.03 0.00 84 1017.3
20260906041423 69 94 0.9 5.2 0.00 0.03 0.00 84 1017.3
20260906040923 69 124 0.9 5.2 0.00 0.03 0.00 85 1017.3
20260906040423 69 120 0.9 4.3 0.00 0.03 0.00 85 1017.3
20260906035920 69 131 0.9 4.3 0.00 0.03 0.03 86 1017.1
20260906035415 69 133 0.0 2.6 0.00 0.03 0.03 86 1017.2
20260906034908 69 122 0.0 1.7 0.00 0.03 0.03 86 1017.3
20260906034424 69 121 0.0 2.6 0.00 0.03 0.03 86 1017.2
20260906034415 69 124 0.0 1.7 0.00 0.03 0.03 86 1017.2
20260906033630 70 142 0.9 3.5 0.00 0.03 0.03 85 1017.1
20260906032845 70 113 0.9 3.5 0.00 0.03 0.03 85 1017.0
20260906032338 70 94 0.9 2.6 0.00 0.03 0.03 85 1017.0
20260906031833 70 120 0.0 2.6 0.00 0.03 0.03 86 1016.9
20260906031327 70 77 0.0 1.7 0.00 0.03 0.03 89 1016.9
20260906030821 70 136 0.9 1.7 0.00 0.03 0.03 89 1017.0
20260906030315 70 146 0.9 3.5 0.00 0.03 0.03 90 1017.0
20260906030048 70 139 0.0 3.5 0.00 0.03 0.03 90 1017.0
20260906025306 70 141 0.0 0.9 0.00 0.03 0.03 91 1017.0
20260906024756 70 133 0.0 0.9 0.00 0.03 0.03 92 1016.9
20260906024251 70 134 0.0 0.9 0.00 0.03 0.03 93 1016.9
20260906023745 70 153 0.0 0.0 0.00 0.03 0.03 94 1016.9
20260906023239 70 153 0.0 0.0 0.00 0.03 0.03 95 1016.8
20260906022738 70 153 0.0 0.0 0.00 0.03 0.03 95 1016.7
20260906022235 70 153 0.0 0.9 0.00 0.03 0.03 95 1016.8
20260906022013 70 153 0.0 1.7 0.00 0.03 0.03 95 1016.7
20260906021231 70 152 0.0 1.7 0.00 0.03 0.03 95 1016.6
20260906020729 71 153 0.0 0.9 0.00 0.03 0.03 95 1016.5
20260906020229 71 153 0.0 0.0 0.00 0.03 0.03 95 1016.6
20260906015729 71 153 0.0 0.9 0.00 0.03 0.03 95 1016.5
20260906015227 71 153 0.0 0.9 0.00 0.03 0.03 94 1016.6
20260906014726 71 79 0.0 0.9 0.00 0.03 0.03 94 1016.5
20260906014503 71 79 0.0 0.9 0.00 0.03 0.03 94 1016.5
20260906013722 71 79 0.0 0.9 0.00 0.03 0.03 94 1016.6
20260906013220 71 79 0.0 0.9 0.00 0.03 0.03 94 1016.5
20260906012720 71 275 0.0 0.9 0.00 0.03 0.03 94 1016.5
20260906012216 71 275 0.0 0.9 0.00 0.03 0.03 94 1016.5
20260906011718 71 275 0.0 0.9 0.00 0.03 0.03 93 1016.4
20260906011218 72 275 0.0 0.9 0.00 0.03 0.03 93 1016.5
20260906010718 72 275 0.9 2.6 0.00 0.03 0.03 93 1016.5
20260906010217 72 8 1.7 2.6 0.00 0.03 0.03 93 1016.4
20260906005716 72 11 2.6 4.3 0.00 0.03 0.03 93 1016.3
20260906005217 72 349 3.5 5.2 0.00 0.03 0.03 93 1016.2
20260906004728 72 337 4.3 7.0 0.00 0.03 0.03 93 1016.1
20260906004720 72 319 3.5 6.1 0.00 0.03 0.03 93 1016.3
20260906003940 72 325 5.2 7.8 0.00 0.03 0.03 93 1016.1
20260906003433 72 319 5.2 7.8 0.00 0.03 0.03 92 1016.1
20260906002647 72 328 4.3 7.8 0.00 0.03 0.03 93 1016.1
20260906002146 72 326 4.3 7.0 0.00 0.03 0.03 93 1016.2
20260906001925 72 323 3.5 7.0 0.00 0.03 0.03 92 1016.1
20260906001146 73 338 4.3 7.0 0.00 0.03 0.03 92 1016.1
20260906000929 73 331 5.2 7.0 0.00 0.03 0.03 91 1016.1
20260906000144 73 346 5.2 7.0 0.00 0.03 0.03 91 1016.2
20260905235644 73 322 5.2 8.7 0.00 0.03 0.03 91 1016.2
20260905235145 74 316 5.2 8.7 0.00 0.03 0.03 89 1016.2
20260905234643 75 331 2.6 7.8 0.00 0.03 0.03 86 1016.3
20260905234144 76 298 1.7 3.5 0.00 0.03 0.03 84 1016.2
20260905233644 77 64 0.9 2.6 0.00 0.03 0.03 83 1016.1
20260905233143 77 19 0.9 2.6 0.00 0.03 0.03 83 1016.1
20260905232642 77 60 1.7 2.6 0.00 0.03 0.03 82 1015.9
20260905232143 77 52 1.7 3.5 0.00 0.03 0.03 81 1016.0
20260905231643 77 51 1.7 3.5 0.00 0.03 0.03 82 1016.0
20260905231142 77 58 1.7 3.5 0.00 0.03 0.03 82 1016.1
20260905230921 76 82 2.6 4.3 0.00 0.03 0.03 82 1016.0
20260905230138 76 56 2.6 5.2 0.00 0.03 0.03 83 1015.9
20260905225637 76 58 2.6 5.2 0.00 0.03 0.03 84 1015.9
20260905225206 76 46 2.6 6.1 0.00 0.03 0.03 84 1016.0
20260905225152 76 44 2.6 6.1 0.00 0.03 0.03 84 1015.9
20260905224139 76 49 3.5 6.1 0.00 0.03 0.03 85 1016.0
20260905223637 76 76 3.5 5.2 0.00 0.03 0.03 85 1015.9
20260905223420 75 37 3.5 6.1 0.00 0.03 0.03 86 1015.9
20260905222634 75 42 2.6 6.1 0.00 0.03 0.03 86 1015.9
20260905222137 75 42 1.7 4.3 0.00 0.03 0.03 87 1015.9
20260905221911 75 40 1.7 4.3 0.00 0.03 0.03 87 1015.9
20260905221131 75 53 0.9 3.5 0.00 0.03 0.03 87 1015.7
20260905220631 75 79 0.9 2.6 0.00 0.03 0.03 89 1015.6
20260905220131 74 80 0.9 2.6 0.00 0.03 0.03 89 1015.5
20260905215911 74 85 0.9 3.5 0.00 0.03 0.03 89 1015.4
20260905215131 74 75 1.7 4.3 0.00 0.03 0.03 89 1015.4
20260905214631 74 77 2.6 6.1 0.00 0.03 0.03 90 1015.4
20260905214416 74 79 3.5 7.0 0.00 0.03 0.03 90 1015.4
20260905213913 74 54 3.5 7.0 0.00 0.03 0.03 91 1015.3
20260905213127 73 65 2.6 6.1 0.00 0.03 0.03 92 1015.4
20260905212628 73 58 2.6 5.2 0.00 0.03 0.03 93 1015.3
20260905212158 73 72 2.6 7.0 0.00 0.03 0.03 93 1015.3
20260905212144 73 73 2.6 4.3 0.00 0.03 0.03 93 1015.2
20260905211128 72 89 3.5 7.0 0.01 0.03 0.03 94 1015.3
20260905210627 72 39 3.5 6.1 0.01 0.03 0.03 94 1015.2
20260905210127 72 70 2.6 6.1 0.02 0.03 0.03 94 1015.2
20260905205628 71 89 2.6 7.0 0.02 0.03 0.03 95 1015.2
20260905205128 71 97 3.5 7.0 0.03 0.03 0.03 96 1015.2
20260905204628 71 73 2.6 6.1 0.03 0.03 0.03 96 1015.1
20260905204129 71 69 2.6 5.2 0.03 0.03 0.03 96 1015.1
20260905203629 71 110 2.6 5.2 0.03 0.03 0.03 97 1015.2
20260905203129 70 77 3.5 5.2 0.03 0.03 0.03 97 1015.3
20260905202910 70 75 2.6 5.2 0.03 0.03 0.03 97 1015.5
20260905202128 70 74 2.6 5.2 0.03 0.03 0.03 97 1015.5
20260905201626 70 82 2.6 6.1 0.03 0.03 0.03 96 1015.6
20260905201408 70 69 3.5 6.1 0.02 0.02 0.03 96 1015.7
20260905200906 70 75 3.5 6.1 0.02 0.02 0.02 96 1015.7
20260905200126 70 86 3.5 7.0 0.01 0.01 0.01 96 1015.9
20260905195626 70 79 3.5 7.0 0.01 0.01 0.01 96 1015.9
20260905195410 70 62 3.5 7.8 0.00 0.00 0.00 96 1015.8
20260905194625 70 58 4.3 7.8 0.00 0.00 0.00 95 1015.9
20260905194126 70 79 4.3 7.8 0.00 0.00 0.00 94 1015.9
20260905193621 70 60 5.2 10.4 0.00 0.00 0.00 95 1015.9
20260905193121 70 67 5.2 10.4 0.00 0.00 0.00 95 1015.9
20260905192622 70 77 5.2 11.3 0.00 0.00 0.00 94 1016.0
20260905192122 71 60 6.1 11.3 0.00 0.00 0.00 94 1016.0
20260905191620 71 74 5.2 10.4 0.00 0.00 0.00 93 1016.0
20260905191119 71 75 4.3 9.6 0.00 0.00 0.00 93 1015.9
20260905190618 71 59 4.3 8.7 0.00 0.00 0.00 93 1015.9
20260905190119 71 64 6.1 11.3 0.00 0.00 0.00 92 1016.0
20260905185621 71 65 6.1 11.3 0.00 0.00 0.00 92 1015.9
20260905185120 71 63 5.2 11.3 0.00 0.00 0.00 91 1015.9
20260905184614 72 70 5.2 11.3 0.00 0.00 0.00 91 1015.9
20260905184108 72 46 5.2 11.3 0.00 0.00 0.00 91 1016.0
20260905183602 72 77 6.1 11.3 0.00 0.00 0.00 91 1015.9
20260905183343 72 78 5.2 10.4 0.00 0.00 0.00 90 1016.0
20260905182833 72 66 4.3 8.7 0.00 0.00 0.00 90 1016.0
20260905182044 73 46 3.5 8.7 0.00 0.00 0.00 89 1015.9
20260905181819 73 59 3.5 6.1 0.00 0.00 0.00 90 1015.8
20260905181032 73 95 3.5 6.1 0.00 0.00 0.00 89 1015.7
20260905180526 73 37 3.5 6.1 0.00 0.00 0.00 89 1015.7
20260905180020 73 71 3.5 7.8 0.00 0.00 0.00 89 1015.8
20260905175514 73 64 4.3 7.8 0.00 0.00 0.00 90 1015.8
20260905175252 73 92 3.5 7.0 0.00 0.00 0.00 89 1015.8
20260905174506 73 42 3.5 7.0 0.00 0.00 0.00 89 1015.9
20260905174006 73 68 2.6 7.0 0.00 0.00 0.00 88 1015.8
20260905173506 73 70 2.6 5.2 0.00 0.00 0.00 88 1015.8
20260905173006 73 94 2.6 5.2 0.00 0.00 0.00 88 1015.9
20260905172505 73 55 2.6 5.2 0.00 0.00 0.00 89 1015.9
20260905172004 73 70 2.6 6.1 0.00 0.00 0.00 89 1015.9
20260905171506 73 50 4.3 8.7 0.00 0.01 0.00 89 1015.7
20260905171248 73 75 4.3 8.7 0.00 0.01 0.00 88 1015.8
20260905170505 73 70 4.3 7.8 0.00 0.01 0.00 89 1015.8
20260905170006 73 71 4.3 7.8 0.00 0.01 0.00 88 1015.9
20260905165502 73 72 4.3 7.8 0.00 0.01 0.00 89 1015.8
20260905165004 73 75 5.2 9.6 0.00 0.01 0.00 89 1015.8
20260905164500 73 76 6.1 10.4 0.00 0.01 0.00 90 1015.7
20260905164001 73 70 7.0 10.4 0.00 0.01 0.00 90 1015.6
20260905163501 72 72 7.0 8.7 0.00 0.01 0.00 90 1015.7
20260905163000 72 86 6.1 9.6 0.00 0.01 0.00 90 1015.6
20260905162458 73 73 4.3 9.6 0.00 0.01 0.00 90 1015.5
20260905161952 73 61 4.3 8.7 0.00 0.01 0.00 91 1015.7
20260905161445 72 72 5.2 8.7 0.00 0.01 0.00 90 1015.7
20260905161003 72 70 3.5 8.7 0.00 0.02 0.00 90 1015.8
20260905160952 72 68 5.2 8.7 0.00 0.02 0.00 90 1015.7
20260905155926 72 61 3.5 6.1 0.00 0.02 0.00 91 1015.8
20260905155443 72 77 3.5 7.8 0.00 0.03 0.00 91 1015.8
20260905155434 72 77 3.5 7.8 0.00 0.03 0.00 91 1015.9
20260905154408 72 60 3.5 7.0 0.00 0.04 0.00 92 1015.6
20260905153901 72 41 4.3 7.8 0.00 0.04 0.00 92 1015.6
20260905153356 72 65 4.3 8.7 0.00 0.04 0.00 92 1015.5
20260905152850 72 79 4.3 9.6 0.00 0.04 0.00 93 1015.5
20260905152344 72 63 5.2 9.6 0.00 0.04 0.00 94 1015.4
20260905151838 71 68 5.2 8.7 0.00 0.05 0.00 94 1015.4
20260905151332 71 59 4.3 7.8 0.00 0.08 0.00 94 1015.4
20260905150826 71 91 4.3 7.8 0.00 0.08 0.00 94 1015.5
20260905150320 71 71 4.3 7.8 0.00 0.08 0.00 94 1015.4
20260905145814 71 77 4.3 7.8 0.00 0.08 0.00 94 1015.3
20260905145308 71 92 3.5 6.1 0.00 0.08 0.00 94 1015.3
20260905144802 71 91 3.5 6.1 0.00 0.08 0.00 94 1015.4
20260905144256 71 61 4.3 7.8 0.00 0.08 0.00 95 1015.5
20260905143751 71 85 5.2 7.8 0.00 0.08 0.00 95 1015.5
20260905143244 71 72 5.2 8.7 0.00 0.08 0.00 95 1015.5
20260905142738 71 77 4.3 8.7 0.00 0.08 0.00 95 1015.3
20260905142232 71 55 4.3 7.8 0.00 0.09 0.00 95 1015.4
20260905142007 71 46 5.2 8.7 0.00 0.09 0.00 96 1015.2
20260905141220 71 89 5.2 8.7 0.00 0.11 0.00 95 1015.2
20260905140714 71 72 5.2 8.7 0.00 0.25 0.00 95 1015.1
20260905140208 71 87 4.3 8.7 0.00 0.30 0.00 95 1015.1
20260905135703 72 75 4.3 7.8 0.00 0.31 0.00 95 1015.1
20260905135156 72 92 4.3 8.7 0.00 0.31 0.00 95 1015.1
20260905134650 72 75 4.3 8.7 0.00 0.31 0.00 95 1015.0
20260905134144 72 77 4.3 7.0 0.00 0.31 0.00 95 1014.9
20260905133638 72 65 3.5 8.7 0.00 0.31 0.00 95 1014.9
20260905133132 72 108 4.3 9.6 0.00 0.31 0.00 95 1014.9
20260905132626 72 80 3.5 9.6 0.00 0.31 0.00 95 1014.9
20260905132120 72 69 4.3 10.4 0.00 0.31 0.00 95 1015.0
20260905131614 71 102 3.5 10.4 0.00 0.31 0.00 95 1014.8
20260905131351 71 102 2.6 7.0 0.00 0.31 0.00 95 1014.8
20260905130842 71 108 2.6 8.7 0.00 0.31 0.00 95 1014.8
20260905130337 71 124 4.3 8.7 0.00 0.31 0.00 95 1014.8
20260905125551 71 104 4.3 9.6 0.00 0.32 0.00 96 1014.8
20260905125044 71 79 3.5 9.6 0.00 0.35 0.00 95 1014.7
20260905124538 71 79 2.6 8.7 0.00 0.38 0.00 96 1014.6
20260905124032 71 101 1.7 7.0 0.00 0.48 0.00 96 1014.5
20260905123808 71 71 2.6 7.0 0.00 0.52 0.00 96 1014.4
20260905123302 71 105 2.6 7.0 0.00 0.53 0.00 96 1014.3
20260905122514 71 84 3.5 7.8 0.00 0.53 0.00 96 1014.3
20260905122008 71 114 4.3 8.7 0.00 0.53 0.00 96 1014.2